Year,Month,Day,Hour,Minute,Value (Times are PST for temperature in C)
2015,02,25,00,00,2.60
2015,02,25,00,01,2.60
2015,02,25,00,02,2.60
2015,02,25,00,03,2.50
2015,02,25,00,04,2.50
2015,02,25,00,05,2.50
2015,02,25,00,06,2.40
2015,02,25,00,07,2.40
2015,02,25,00,08,2.40
2015,02,25,00,09,2.30
2015,02,25,00,10,2.30
2015,02,25,00,11,2.30
2015,02,25,00,12,2.30
2015,02,25,00,13,2.20
2015,02,25,00,14,2.20
2015,02,25,00,15,2.20
2015,02,25,00,16,2.20
2015,02,25,00,17,2.20
2015,02,25,00,18,2.10
2015,02,25,00,19,2.10
2015,02,25,00,20,2.10
2015,02,25,00,21,2.00
2015,02,25,00,22,2.00
2015,02,25,00,23,1.90
2015,02,25,00,24,1.90
2015,02,25,00,25,1.90
2015,02,25,00,26,1.80
2015,02,25,00,27,1.80
2015,02,25,00,28,1.80
2015,02,25,00,29,1.80
2015,02,25,00,30,1.70
2015,02,25,00,31,1.70
2015,02,25,00,32,1.70
2015,02,25,00,33,1.70
2015,02,25,00,34,1.60
2015,02,25,00,35,1.60
2015,02,25,00,36,1.60
2015,02,25,00,37,1.50
2015,02,25,00,38,1.50
2015,02,25,00,39,1.50
2015,02,25,00,40,1.40
2015,02,25,00,41,1.40
2015,02,25,00,42,1.40
2015,02,25,00,43,1.40
2015,02,25,00,44,1.40
2015,02,25,00,45,1.30
2015,02,25,00,46,1.30
2015,02,25,00,47,1.30
2015,02,25,00,48,1.30
2015,02,25,00,49,1.30
2015,02,25,00,50,1.30
2015,02,25,00,51,1.30
2015,02,25,00,52,1.30
2015,02,25,00,53,1.30
2015,02,25,00,54,1.30
2015,02,25,00,55,1.30
2015,02,25,00,56,1.30
2015,02,25,00,57,1.30
2015,02,25,00,58,1.30
2015,02,25,00,59,1.30
2015,02,25,01,00,1.30
2015,02,25,01,01,1.30
2015,02,25,01,02,1.30
2015,02,25,01,03,1.30
2015,02,25,01,04,1.30
2015,02,25,01,05,1.30
2015,02,25,01,06,1.30
2015,02,25,01,07,1.30
2015,02,25,01,08,1.30
2015,02,25,01,09,1.30
2015,02,25,01,10,1.30
2015,02,25,01,11,1.30
2015,02,25,01,12,1.40
2015,02,25,01,13,1.50
2015,02,25,01,14,1.50
2015,02,25,01,15,1.60
2015,02,25,01,16,1.70
2015,02,25,01,17,1.70
2015,02,25,01,18,1.80
2015,02,25,01,19,1.90
2015,02,25,01,20,1.90
2015,02,25,01,21,2.00
2015,02,25,01,22,2.10
2015,02,25,01,23,2.10
2015,02,25,01,24,2.20
2015,02,25,01,25,2.20
2015,02,25,01,26,2.20
2015,02,25,01,27,2.30
2015,02,25,01,28,2.30
2015,02,25,01,29,2.30
2015,02,25,01,30,2.30
2015,02,25,01,31,2.30
2015,02,25,01,32,2.40
2015,02,25,01,33,2.40
2015,02,25,01,34,2.40
2015,02,25,01,35,2.40
2015,02,25,01,36,2.40
2015,02,25,01,37,2.40
2015,02,25,01,38,2.30
2015,02,25,01,39,2.30
2015,02,25,01,40,2.30
2015,02,25,01,41,2.30
2015,02,25,01,42,2.30
2015,02,25,01,43,2.30
2015,02,25,01,44,2.30
2015,02,25,01,45,2.30
2015,02,25,01,46,2.30
2015,02,25,01,47,2.30
2015,02,25,01,48,2.30
2015,02,25,01,49,2.30
2015,02,25,01,50,2.30
2015,02,25,01,51,2.30
2015,02,25,01,52,2.30
2015,02,25,01,53,2.30
2015,02,25,01,54,2.30
2015,02,25,01,55,2.30
2015,02,25,01,56,2.30
2015,02,25,01,57,2.30
2015,02,25,01,58,2.20
2015,02,25,01,59,2.20
2015,02,25,02,00,2.20
2015,02,25,02,01,2.20
2015,02,25,02,02,2.10
2015,02,25,02,03,2.10
2015,02,25,02,04,2.10
2015,02,25,02,05,2.00
2015,02,25,02,06,2.00
2015,02,25,02,07,1.90
2015,02,25,02,08,1.90
2015,02,25,02,09,1.90
2015,02,25,02,10,1.80
2015,02,25,02,11,1.80
2015,02,25,02,12,1.70
2015,02,25,02,13,1.70
2015,02,25,02,14,1.70
2015,02,25,02,15,1.70
2015,02,25,02,16,1.60
2015,02,25,02,17,1.60
2015,02,25,02,18,1.60
2015,02,25,02,19,1.50
2015,02,25,02,20,1.50
2015,02,25,02,21,1.40
2015,02,25,02,22,1.40
2015,02,25,02,23,1.30
2015,02,25,02,24,1.30
2015,02,25,02,25,1.30
2015,02,25,02,26,1.30
2015,02,25,02,27,1.30
2015,02,25,02,28,1.30
2015,02,25,02,29,1.30
2015,02,25,02,30,1.30
2015,02,25,02,31,1.30
2015,02,25,02,32,1.30
2015,02,25,02,33,1.30
2015,02,25,02,34,1.30
2015,02,25,02,35,1.30
2015,02,25,02,36,1.20
2015,02,25,02,37,1.20
2015,02,25,02,38,1.20
2015,02,25,02,39,1.20
2015,02,25,02,40,1.20
2015,02,25,02,41,1.20
2015,02,25,02,42,1.20
2015,02,25,02,43,1.20
2015,02,25,02,44,1.20
2015,02,25,02,45,1.30
2015,02,25,02,46,1.30
2015,02,25,02,47,1.30
2015,02,25,02,48,1.30
2015,02,25,02,49,1.30
2015,02,25,02,50,1.30
2015,02,25,02,51,1.30
2015,02,25,02,52,1.30
2015,02,25,02,53,1.30
2015,02,25,02,54,1.30
2015,02,25,02,55,1.30
2015,02,25,02,56,1.40
2015,02,25,02,57,1.40
2015,02,25,02,58,1.40
2015,02,25,02,59,1.50
2015,02,25,03,00,1.50
2015,02,25,03,01,1.50
2015,02,25,03,02,1.50
2015,02,25,03,03,1.50
2015,02,25,03,06,1.60
2015,02,25,03,07,1.60
2015,02,25,03,08,1.60
2015,02,25,03,09,1.60
2015,02,25,03,10,1.60
2015,02,25,03,11,1.60
2015,02,25,03,12,1.60
2015,02,25,03,13,1.60
2015,02,25,03,14,1.60
2015,02,25,03,15,1.60
2015,02,25,03,16,1.60
2015,02,25,03,17,1.60
2015,02,25,03,18,1.60
2015,02,25,03,19,1.60
2015,02,25,03,20,1.60
2015,02,25,03,21,1.60
2015,02,25,03,22,1.60
2015,02,25,03,23,1.60
2015,02,25,03,24,1.60
2015,02,25,03,25,1.70
2015,02,25,03,26,1.70
2015,02,25,03,27,1.70
2015,02,25,03,28,1.70
2015,02,25,03,29,1.70
2015,02,25,03,30,1.70
2015,02,25,03,31,1.70
2015,02,25,03,32,1.70
2015,02,25,03,33,1.70
2015,02,25,03,34,1.70
2015,02,25,03,35,1.70
2015,02,25,03,36,1.70
2015,02,25,03,37,1.70
2015,02,25,03,38,1.70
2015,02,25,03,39,1.70
2015,02,25,03,40,1.70
2015,02,25,03,41,1.70
2015,02,25,03,42,1.70
2015,02,25,03,43,1.70
2015,02,25,03,44,1.70
2015,02,25,03,45,1.70
2015,02,25,03,46,1.70
2015,02,25,03,47,1.70
2015,02,25,03,48,1.70
2015,02,25,03,49,1.70
2015,02,25,03,50,1.70
2015,02,25,03,51,1.70
2015,02,25,03,52,1.70
2015,02,25,03,53,1.70
2015,02,25,03,54,1.70
2015,02,25,03,55,1.70
2015,02,25,03,56,1.80
2015,02,25,03,57,1.80
2015,02,25,03,58,1.80
2015,02,25,03,59,1.80
2015,02,25,04,00,1.80
2015,02,25,04,01,1.80
2015,02,25,04,02,1.80
2015,02,25,04,03,1.90
2015,02,25,04,04,1.90
2015,02,25,04,05,1.90
2015,02,25,04,06,1.90
2015,02,25,04,07,1.90
2015,02,25,04,08,2.00
2015,02,25,04,09,2.00
2015,02,25,04,10,2.00
2015,02,25,04,11,2.00
2015,02,25,04,12,2.00
2015,02,25,04,13,2.00
2015,02,25,04,14,2.00
2015,02,25,04,15,2.10
2015,02,25,04,16,2.10
2015,02,25,04,17,2.10
2015,02,25,04,18,2.10
2015,02,25,04,19,2.10
2015,02,25,04,20,2.10
2015,02,25,04,21,2.10
2015,02,25,04,22,2.10
2015,02,25,04,23,2.10
2015,02,25,04,24,2.10
2015,02,25,04,25,2.10
2015,02,25,04,26,2.20
2015,02,25,04,27,2.20
2015,02,25,04,28,2.20
2015,02,25,04,29,2.20
2015,02,25,04,30,2.20
2015,02,25,04,31,2.20
2015,02,25,04,32,2.20
2015,02,25,04,33,2.20
2015,02,25,04,34,2.20
2015,02,25,04,35,2.20
2015,02,25,04,36,2.20
2015,02,25,04,37,2.20
2015,02,25,04,38,2.20
2015,02,25,04,39,2.20
2015,02,25,04,40,2.30
2015,02,25,04,41,2.30
2015,02,25,04,42,2.30
2015,02,25,04,43,2.30
2015,02,25,04,44,2.30
2015,02,25,04,45,2.30
2015,02,25,04,46,2.30
2015,02,25,04,47,2.30
2015,02,25,04,48,2.30
2015,02,25,04,49,2.30
2015,02,25,04,50,2.30
2015,02,25,04,51,2.30
2015,02,25,04,52,2.30
2015,02,25,04,53,2.30
2015,02,25,04,54,2.30
2015,02,25,04,55,2.30
2015,02,25,04,56,2.30
2015,02,25,04,57,2.30
2015,02,25,04,58,2.30
2015,02,25,04,59,2.30
2015,02,25,05,00,2.30
2015,02,25,05,01,2.30
2015,02,25,05,02,2.30
2015,02,25,05,03,2.30
2015,02,25,05,04,2.30
2015,02,25,05,05,2.30
2015,02,25,05,06,2.30
2015,02,25,05,07,2.30
2015,02,25,05,08,2.30
2015,02,25,05,09,2.30
2015,02,25,05,10,2.30
2015,02,25,05,11,2.30
2015,02,25,05,12,2.30
2015,02,25,05,13,2.30
2015,02,25,05,14,2.30
2015,02,25,05,15,2.30
2015,02,25,05,16,2.30
2015,02,25,05,17,2.30
2015,02,25,05,18,2.30
2015,02,25,05,19,2.30
2015,02,25,05,20,2.30
2015,02,25,05,21,2.40
2015,02,25,05,22,2.40
2015,02,25,05,23,2.40
2015,02,25,05,24,2.40
2015,02,25,05,25,2.40
2015,02,25,05,26,2.40
2015,02,25,05,27,2.40
2015,02,25,05,28,2.40
2015,02,25,05,29,2.40
2015,02,25,05,30,2.40
2015,02,25,05,31,2.40
2015,02,25,05,32,2.40
2015,02,25,05,33,2.40
2015,02,25,05,34,2.40
2015,02,25,05,35,2.40
2015,02,25,05,36,2.40
2015,02,25,05,37,2.40
2015,02,25,05,38,2.40
2015,02,25,05,39,2.40
2015,02,25,05,40,2.40
2015,02,25,05,41,2.40
2015,02,25,05,42,2.40
2015,02,25,05,43,2.40
2015,02,25,05,44,2.40
2015,02,25,05,45,2.40
2015,02,25,05,46,2.40
2015,02,25,05,47,2.40
2015,02,25,05,48,2.50
2015,02,25,05,49,2.50
2015,02,25,05,50,2.50
2015,02,25,05,51,2.50
2015,02,25,05,52,2.50
2015,02,25,05,53,2.50
2015,02,25,05,54,2.50
2015,02,25,05,55,2.50
2015,02,25,05,56,2.50
2015,02,25,05,57,2.50
2015,02,25,05,58,2.60
2015,02,25,05,59,2.60
2015,02,25,06,00,2.60
2015,02,25,06,01,2.60
2015,02,25,06,02,2.60
2015,02,25,06,03,2.60
2015,02,25,06,04,2.60
2015,02,25,06,05,2.60
2015,02,25,06,06,2.60
2015,02,25,06,07,2.60
2015,02,25,06,08,2.60
2015,02,25,06,09,2.60
2015,02,25,06,10,2.60
2015,02,25,06,11,2.60
2015,02,25,06,12,2.60
2015,02,25,06,13,2.60
2015,02,25,06,14,2.60
2015,02,25,06,15,2.60
2015,02,25,06,16,2.60
2015,02,25,06,17,2.60
2015,02,25,06,18,2.60
2015,02,25,06,19,2.60
2015,02,25,06,20,2.60
2015,02,25,06,21,2.60
2015,02,25,06,22,2.60
2015,02,25,06,23,2.60
2015,02,25,06,24,2.60
2015,02,25,06,25,2.60
2015,02,25,06,26,2.60
2015,02,25,06,27,2.60
2015,02,25,06,28,2.60
2015,02,25,06,29,2.60
2015,02,25,06,30,2.60
2015,02,25,06,31,2.60
2015,02,25,06,32,2.60
2015,02,25,06,33,2.60
2015,02,25,06,34,2.60
2015,02,25,06,35,2.60
2015,02,25,06,36,2.60
2015,02,25,06,37,2.60
2015,02,25,06,38,2.60
2015,02,25,06,39,2.60
2015,02,25,06,40,2.70
2015,02,25,06,41,2.70
2015,02,25,06,42,2.70
2015,02,25,06,43,2.70
2015,02,25,06,44,2.70
2015,02,25,06,45,2.70
2015,02,25,06,46,2.70
2015,02,25,06,47,2.70
2015,02,25,06,48,2.70
2015,02,25,06,49,2.70
2015,02,25,06,50,2.70
2015,02,25,06,51,2.70
2015,02,25,06,52,2.70
2015,02,25,06,53,2.70
2015,02,25,06,54,2.70
2015,02,25,06,55,2.70
2015,02,25,06,56,2.70
2015,02,25,06,57,2.70
2015,02,25,06,58,2.70
2015,02,25,06,59,2.70
2015,02,25,07,00,2.70
2015,02,25,07,01,2.70
2015,02,25,07,02,2.70
2015,02,25,07,03,2.70
2015,02,25,07,04,2.70
2015,02,25,07,05,2.70
2015,02,25,07,06,2.70
2015,02,25,07,07,2.70
2015,02,25,07,08,2.70
2015,02,25,07,09,2.70
2015,02,25,07,10,2.70
2015,02,25,07,11,2.70
2015,02,25,07,12,2.70
2015,02,25,07,13,2.70
2015,02,25,07,14,2.70
2015,02,25,07,15,2.70
2015,02,25,07,16,2.70
2015,02,25,07,17,2.70
2015,02,25,07,18,2.70
2015,02,25,07,19,2.70
2015,02,25,07,20,2.70
2015,02,25,07,21,2.70
2015,02,25,07,22,2.70
2015,02,25,07,23,2.70
2015,02,25,07,24,2.70
2015,02,25,07,25,2.70
2015,02,25,07,26,2.70
2015,02,25,07,27,2.70
2015,02,25,07,28,2.70
2015,02,25,07,29,2.70
2015,02,25,07,30,2.70
2015,02,25,07,31,2.70
2015,02,25,07,32,2.70
2015,02,25,07,33,2.70
2015,02,25,07,34,2.70
2015,02,25,07,35,2.70
2015,02,25,07,36,2.70
2015,02,25,07,37,2.70
2015,02,25,07,38,2.70
2015,02,25,07,39,2.70
2015,02,25,07,40,2.70
2015,02,25,07,41,2.70
2015,02,25,07,42,2.70
2015,02,25,07,43,2.70
2015,02,25,07,44,2.70
2015,02,25,07,45,2.70
2015,02,25,07,46,2.70
2015,02,25,07,47,2.80
2015,02,25,07,48,2.80
2015,02,25,07,49,2.80
2015,02,25,07,50,2.80
2015,02,25,07,51,2.80
2015,02,25,07,52,2.80
2015,02,25,07,53,2.80
2015,02,25,07,54,2.80
2015,02,25,07,55,2.80
2015,02,25,07,56,2.80
2015,02,25,07,57,2.80
2015,02,25,07,58,2.80
2015,02,25,07,59,2.80
2015,02,25,08,00,2.90
2015,02,25,08,01,2.90
2015,02,25,08,02,2.90
2015,02,25,08,03,2.90
2015,02,25,08,04,2.90
2015,02,25,08,05,2.90
2015,02,25,08,06,2.90
2015,02,25,08,07,2.90
2015,02,25,08,08,2.90
2015,02,25,08,09,3.00
2015,02,25,08,10,3.00
2015,02,25,08,11,3.00
2015,02,25,08,12,3.00
2015,02,25,08,13,3.00
2015,02,25,08,14,3.00
2015,02,25,08,15,3.00
2015,02,25,08,16,3.00
2015,02,25,08,17,3.00
2015,02,25,08,18,3.10
2015,02,25,08,19,3.10
2015,02,25,08,20,3.10
2015,02,25,08,21,3.10
2015,02,25,08,22,3.10
2015,02,25,08,23,3.10
2015,02,25,08,24,3.10
2015,02,25,08,25,3.10
2015,02,25,08,26,3.10
2015,02,25,08,27,3.10
2015,02,25,08,28,3.10
2015,02,25,08,29,3.20
2015,02,25,08,30,3.20
2015,02,25,08,31,3.20
2015,02,25,08,32,3.20
2015,02,25,08,33,3.20
2015,02,25,08,34,3.20
2015,02,25,08,35,3.20
2015,02,25,08,36,3.30
2015,02,25,08,37,3.30
2015,02,25,08,38,3.30
2015,02,25,08,39,3.30
2015,02,25,08,40,3.30
2015,02,25,08,41,3.40
2015,02,25,08,42,3.40
2015,02,25,08,43,3.40
2015,02,25,08,44,3.40
2015,02,25,08,45,3.40
2015,02,25,08,46,3.50
2015,02,25,08,47,3.50
2015,02,25,08,48,3.50
2015,02,25,08,49,3.50
2015,02,25,08,50,3.50
2015,02,25,08,51,3.60
2015,02,25,08,52,3.60
2015,02,25,08,53,3.60
2015,02,25,08,54,3.60
2015,02,25,08,55,3.60
2015,02,25,08,56,3.60
2015,02,25,08,57,3.70
2015,02,25,08,58,3.70
2015,02,25,08,59,3.70
2015,02,25,09,00,3.70
2015,02,25,09,01,3.70
2015,02,25,09,02,3.80
2015,02,25,09,03,3.80
2015,02,25,09,04,3.80
2015,02,25,09,05,3.80
2015,02,25,09,06,3.90
2015,02,25,09,07,3.90
2015,02,25,09,08,3.90
2015,02,25,09,09,3.90
2015,02,25,09,10,4.00
2015,02,25,09,11,4.00
2015,02,25,09,12,4.10
2015,02,25,09,13,4.10
2015,02,25,09,14,4.10
2015,02,25,09,15,4.10
2015,02,25,09,16,4.20
2015,02,25,09,17,4.20
2015,02,25,09,18,4.20
2015,02,25,09,19,4.30
2015,02,25,09,20,4.30
2015,02,25,09,21,4.30
2015,02,25,09,22,4.30
2015,02,25,09,23,4.30
2015,02,25,09,24,4.40
2015,02,25,09,25,4.40
2015,02,25,09,26,4.40
2015,02,25,09,27,4.50
2015,02,25,09,28,4.50
2015,02,25,09,29,4.60
2015,02,25,09,30,4.60
2015,02,25,09,31,4.60
2015,02,25,09,32,4.70
2015,02,25,09,33,4.70
2015,02,25,09,34,4.70
2015,02,25,09,35,4.80
2015,02,25,09,36,4.80
2015,02,25,09,37,4.80
2015,02,25,09,38,4.80
2015,02,25,09,39,4.80
2015,02,25,09,40,4.90
2015,02,25,09,41,4.90
2015,02,25,09,42,4.90
2015,02,25,09,43,4.90
2015,02,25,09,44,5.00
2015,02,25,09,45,5.00
2015,02,25,09,46,5.00
2015,02,25,09,47,5.10
2015,02,25,09,48,5.10
2015,02,25,09,49,5.10
2015,02,25,09,50,5.20
2015,02,25,09,51,5.20
2015,02,25,09,52,5.30
2015,02,25,09,53,5.30
2015,02,25,09,54,5.40
2015,02,25,09,55,5.40
2015,02,25,09,56,5.40
2015,02,25,09,57,5.50
2015,02,25,09,58,5.50
2015,02,25,09,59,5.60
2015,02,25,10,00,5.60
2015,02,25,10,01,5.70
2015,02,25,10,02,5.70
2015,02,25,10,03,5.70
2015,02,25,10,04,5.80
2015,02,25,10,05,5.80
2015,02,25,10,06,5.80
2015,02,25,10,07,5.80
2015,02,25,10,08,5.90
2015,02,25,10,09,5.90
2015,02,25,10,10,5.90
2015,02,25,10,11,5.90
2015,02,25,10,12,5.90
2015,02,25,10,13,5.90
2015,02,25,10,14,5.90
2015,02,25,10,15,6.00
2015,02,25,10,16,6.00
2015,02,25,10,17,6.10
2015,02,25,10,18,6.10
2015,02,25,10,19,6.10
2015,02,25,10,20,6.10
2015,02,25,10,21,6.20
2015,02,25,10,22,6.20
2015,02,25,10,23,6.20
2015,02,25,10,24,6.20
2015,02,25,10,25,6.20
2015,02,25,10,26,6.20
2015,02,25,10,27,6.30
2015,02,25,10,28,6.30
2015,02,25,10,29,6.30
2015,02,25,10,30,6.30
2015,02,25,10,31,6.30
2015,02,25,10,32,6.30
2015,02,25,10,33,6.30
2015,02,25,10,34,6.30
2015,02,25,10,35,6.30
2015,02,25,10,36,6.30
2015,02,25,10,37,6.30
2015,02,25,10,38,6.30
2015,02,25,10,39,6.40
2015,02,25,10,40,6.40
2015,02,25,10,41,6.40
2015,02,25,10,42,6.40
2015,02,25,10,43,6.40
2015,02,25,10,44,6.40
2015,02,25,10,45,6.40
2015,02,25,10,46,6.40
2015,02,25,10,47,6.40
2015,02,25,10,48,6.40
2015,02,25,10,49,6.40
2015,02,25,10,50,6.30
2015,02,25,10,51,6.30
2015,02,25,10,52,6.30
2015,02,25,10,53,6.30
2015,02,25,10,54,6.30
2015,02,25,10,55,6.30
2015,02,25,10,56,6.40
2015,02,25,10,57,6.40
2015,02,25,10,58,6.40
2015,02,25,10,59,6.40
2015,02,25,11,00,6.40
2015,02,25,11,01,6.40
2015,02,25,11,02,6.40
2015,02,25,11,03,6.50
2015,02,25,11,04,6.50
2015,02,25,11,05,6.50
2015,02,25,11,06,6.60
2015,02,25,11,07,6.60
2015,02,25,11,08,6.60
2015,02,25,11,09,6.60
2015,02,25,11,10,6.70
2015,02,25,11,11,6.70
2015,02,25,11,12,6.70
2015,02,25,11,13,6.70
2015,02,25,11,14,6.70
2015,02,25,11,15,6.70
2015,02,25,11,16,6.70
2015,02,25,11,17,6.80
2015,02,25,11,18,6.80
2015,02,25,11,19,6.80
2015,02,25,11,20,6.80
2015,02,25,11,21,6.80
2015,02,25,11,22,6.90
2015,02,25,11,23,6.90
2015,02,25,11,24,6.90
2015,02,25,11,25,7.00
2015,02,25,11,26,7.00
2015,02,25,11,27,7.00
2015,02,25,11,28,7.10
2015,02,25,11,29,7.10
2015,02,25,11,30,7.10
2015,02,25,11,31,7.10
2015,02,25,11,32,7.10
2015,02,25,11,33,7.10
2015,02,25,11,34,7.10
2015,02,25,11,35,7.10
2015,02,25,11,36,7.10
2015,02,25,11,37,7.10
2015,02,25,11,38,7.20
2015,02,25,11,39,7.20
2015,02,25,11,40,7.20
2015,02,25,11,41,7.20
2015,02,25,11,42,7.20
2015,02,25,11,43,7.20
2015,02,25,11,44,7.30
2015,02,25,11,45,7.30
2015,02,25,11,46,7.30
2015,02,25,11,47,7.30
2015,02,25,11,48,7.40
2015,02,25,11,49,7.40
2015,02,25,11,50,7.40
2015,02,25,11,51,7.40
2015,02,25,11,52,7.40
2015,02,25,11,53,7.40
2015,02,25,11,54,7.50
2015,02,25,11,55,7.50
2015,02,25,11,56,7.50
2015,02,25,11,57,7.50
2015,02,25,11,58,7.60
2015,02,25,11,59,7.60
2015,02,25,12,00,7.60
2015,02,25,12,01,7.60
2015,02,25,12,02,7.60
2015,02,25,12,03,7.60
2015,02,25,12,04,7.60
2015,02,25,12,05,7.70
2015,02,25,12,06,7.70
2015,02,25,12,07,7.70
2015,02,25,12,08,7.70
2015,02,25,12,09,7.70
2015,02,25,12,10,7.80
2015,02,25,12,11,7.80
2015,02,25,12,12,7.80
2015,02,25,12,13,7.80
2015,02,25,12,14,7.80
2015,02,25,12,15,7.80
2015,02,25,12,16,7.80
2015,02,25,12,17,7.80
2015,02,25,12,18,7.80
2015,02,25,12,19,7.80
2015,02,25,12,20,7.80
2015,02,25,12,21,7.80
2015,02,25,12,22,7.80
2015,02,25,12,23,7.80
2015,02,25,12,24,7.80
2015,02,25,12,25,7.80
2015,02,25,12,26,7.90
2015,02,25,12,27,7.90
2015,02,25,12,28,7.90
2015,02,25,12,29,7.90
2015,02,25,12,30,8.00
2015,02,25,12,31,8.00
2015,02,25,12,32,8.10
2015,02,25,12,33,8.10
2015,02,25,12,34,8.10
2015,02,25,12,35,8.10
2015,02,25,12,36,8.10
2015,02,25,12,37,8.10
2015,02,25,12,38,8.20
2015,02,25,12,39,8.20
2015,02,25,12,40,8.20
2015,02,25,12,41,8.20
2015,02,25,12,42,8.20
2015,02,25,12,43,8.20
2015,02,25,12,44,8.20
2015,02,25,12,45,8.20
2015,02,25,12,46,8.20
2015,02,25,12,47,8.20
2015,02,25,12,48,8.20
2015,02,25,12,49,8.20
2015,02,25,12,50,8.20
2015,02,25,12,51,8.20
2015,02,25,12,52,8.10
2015,02,25,12,53,8.10
2015,02,25,12,54,8.10
2015,02,25,12,55,8.10
2015,02,25,12,56,8.10
2015,02,25,12,57,8.10
2015,02,25,12,58,8.10
2015,02,25,12,59,8.10
2015,02,25,13,00,8.10
2015,02,25,13,01,8.10
2015,02,25,13,02,8.10
2015,02,25,13,03,8.10
2015,02,25,13,04,8.10
2015,02,25,13,05,8.10
2015,02,25,13,06,8.10
2015,02,25,13,07,8.10
2015,02,25,13,08,8.10
2015,02,25,13,09,8.10
2015,02,25,13,10,8.10
2015,02,25,13,11,8.10
2015,02,25,13,12,8.10
2015,02,25,13,13,8.10
2015,02,25,13,14,8.10
2015,02,25,13,15,8.10
2015,02,25,13,16,8.10
2015,02,25,13,17,8.10
2015,02,25,13,18,8.10
2015,02,25,13,19,8.10
2015,02,25,13,20,8.10
2015,02,25,13,21,8.10
2015,02,25,13,22,8.10
2015,02,25,13,23,8.10
2015,02,25,13,24,8.10
2015,02,25,13,25,8.10
2015,02,25,13,26,8.10
2015,02,25,13,27,8.10
2015,02,25,13,28,8.10
2015,02,25,13,29,8.10
2015,02,25,13,30,8.10
2015,02,25,13,31,8.10
2015,02,25,13,32,8.10
2015,02,25,13,33,8.10
2015,02,25,13,34,8.10
2015,02,25,13,35,8.10
2015,02,25,13,36,8.10
2015,02,25,13,37,8.10
2015,02,25,13,38,8.10
2015,02,25,13,39,8.10
2015,02,25,13,40,8.10
2015,02,25,13,41,8.10
2015,02,25,13,42,8.00
2015,02,25,13,43,8.00
2015,02,25,13,44,8.00
2015,02,25,13,45,8.00
2015,02,25,13,46,8.00
2015,02,25,13,47,8.10
2015,02,25,13,48,8.00
2015,02,25,13,49,8.00
2015,02,25,13,50,8.00
2015,02,25,13,51,8.00
2015,02,25,13,52,7.90
2015,02,25,13,53,7.90
2015,02,25,13,54,7.90
2015,02,25,13,55,7.90
2015,02,25,13,56,7.90
2015,02,25,13,57,7.90
2015,02,25,13,58,7.90
2015,02,25,13,59,7.90
2015,02,25,14,00,7.90
2015,02,25,14,01,7.90
2015,02,25,14,02,7.90
2015,02,25,14,03,7.90
2015,02,25,14,04,7.90
2015,02,25,14,05,7.90
2015,02,25,14,06,7.90
2015,02,25,14,07,7.90
2015,02,25,14,08,7.90
2015,02,25,14,09,7.90
2015,02,25,14,10,7.80
2015,02,25,14,11,7.80
2015,02,25,14,12,7.80
2015,02,25,14,13,7.80
2015,02,25,14,14,7.80
2015,02,25,14,15,7.80
2015,02,25,14,16,7.80
2015,02,25,14,17,7.80
2015,02,25,14,18,7.80
2015,02,25,14,19,7.80
2015,02,25,14,20,7.80
2015,02,25,14,21,7.80
2015,02,25,14,22,7.80
2015,02,25,14,23,7.80
2015,02,25,14,24,7.80
2015,02,25,14,25,7.80
2015,02,25,14,26,7.80
2015,02,25,14,27,7.80
2015,02,25,14,28,7.80
2015,02,25,14,29,7.80
2015,02,25,14,30,7.80
2015,02,25,14,31,7.80
2015,02,25,14,32,7.80
2015,02,25,14,33,7.80
2015,02,25,14,34,7.80
2015,02,25,14,35,7.80
2015,02,25,14,36,7.80
2015,02,25,14,37,7.80
2015,02,25,14,38,7.80
2015,02,25,14,39,7.80
2015,02,25,14,40,7.80
2015,02,25,14,41,7.70
2015,02,25,14,42,7.70
2015,02,25,14,43,7.70
2015,02,25,14,44,7.70
2015,02,25,14,45,7.70
2015,02,25,14,46,7.70
2015,02,25,14,47,7.70
2015,02,25,14,48,7.70
2015,02,25,14,49,7.70
2015,02,25,14,50,7.70
2015,02,25,14,51,7.70
2015,02,25,14,52,7.70
2015,02,25,14,53,7.70
2015,02,25,14,54,7.70
2015,02,25,14,55,7.70
2015,02,25,14,56,7.70
2015,02,25,14,57,7.70
2015,02,25,14,58,7.70
2015,02,25,14,59,7.70
2015,02,25,15,00,7.70
2015,02,25,15,01,7.70
2015,02,25,15,02,7.70
2015,02,25,15,03,7.70
2015,02,25,15,04,7.70
2015,02,25,15,05,7.70
2015,02,25,15,06,7.70
2015,02,25,15,07,7.70
2015,02,25,15,08,7.80
2015,02,25,15,09,7.80
2015,02,25,15,10,7.80
2015,02,25,15,11,7.80
2015,02,25,15,12,7.80
2015,02,25,15,13,7.80
2015,02,25,15,14,7.80
2015,02,25,15,15,7.80
2015,02,25,15,16,7.80
2015,02,25,15,17,7.80
2015,02,25,15,18,7.80
2015,02,25,15,19,7.80
2015,02,25,15,20,7.80
2015,02,25,15,21,7.80
2015,02,25,15,22,7.80
2015,02,25,15,23,7.80
2015,02,25,15,24,7.80
2015,02,25,15,25,7.80
2015,02,25,15,26,7.80
2015,02,25,15,27,7.80
2015,02,25,15,28,7.80
2015,02,25,15,29,7.80
2015,02,25,15,30,7.80
2015,02,25,15,31,7.80
2015,02,25,15,32,7.80
2015,02,25,15,33,7.80
2015,02,25,15,34,7.80
2015,02,25,15,35,7.80
2015,02,25,15,36,7.80
2015,02,25,15,37,7.80
2015,02,25,15,38,7.80
2015,02,25,15,39,7.80
2015,02,25,15,40,7.80
2015,02,25,15,41,7.80
2015,02,25,15,42,7.70
2015,02,25,15,43,7.70
2015,02,25,15,44,7.70
2015,02,25,15,45,7.70
2015,02,25,15,46,7.70
2015,02,25,15,47,7.70
2015,02,25,15,48,7.70
2015,02,25,15,49,7.70
2015,02,25,15,50,7.70
2015,02,25,15,51,7.70
2015,02,25,15,52,7.70
2015,02,25,15,53,7.70
2015,02,25,15,54,7.70
2015,02,25,15,55,7.70
2015,02,25,15,56,7.70
2015,02,25,15,57,7.70
2015,02,25,15,58,7.70
2015,02,25,15,59,7.70
2015,02,25,16,00,7.70
2015,02,25,16,01,7.70
2015,02,25,16,02,7.70
2015,02,25,16,03,7.70
2015,02,25,16,04,7.70
2015,02,25,16,05,7.70
2015,02,25,16,06,7.70
2015,02,25,16,07,7.70
2015,02,25,16,08,7.70
2015,02,25,16,09,7.70
2015,02,25,16,10,7.80
2015,02,25,16,11,7.80
2015,02,25,16,12,7.80
2015,02,25,16,13,7.80
2015,02,25,16,14,7.80
2015,02,25,16,15,7.70
2015,02,25,16,16,7.70
2015,02,25,16,17,7.70
2015,02,25,16,18,7.70
2015,02,25,16,19,7.70
2015,02,25,16,20,7.70
2015,02,25,16,21,7.70
2015,02,25,16,22,7.70
2015,02,25,16,23,7.70
2015,02,25,16,24,7.70
2015,02,25,16,25,7.70
2015,02,25,16,26,7.70
2015,02,25,16,27,7.70
2015,02,25,16,28,7.70
2015,02,25,16,29,7.70
2015,02,25,16,30,7.70
2015,02,25,16,31,7.70
2015,02,25,16,32,7.70
2015,02,25,16,33,7.70
2015,02,25,16,34,7.70
2015,02,25,16,35,7.70
2015,02,25,16,36,7.70
2015,02,25,16,37,7.70
2015,02,25,16,38,7.70
2015,02,25,16,39,7.70
2015,02,25,16,40,7.70
2015,02,25,16,41,7.70
2015,02,25,16,42,7.70
2015,02,25,16,43,7.70
2015,02,25,16,44,7.70
2015,02,25,16,45,7.70
2015,02,25,16,46,7.70
2015,02,25,16,47,7.60
2015,02,25,16,48,7.60
2015,02,25,16,49,7.60
2015,02,25,16,50,7.60
2015,02,25,16,51,7.60
2015,02,25,16,52,7.60
2015,02,25,16,53,7.60
2015,02,25,16,54,7.60
2015,02,25,16,55,7.60
2015,02,25,16,56,7.60
2015,02,25,16,57,7.60
2015,02,25,16,58,7.60
2015,02,25,16,59,7.60
2015,02,25,17,00,7.50
2015,02,25,17,01,7.50
2015,02,25,17,02,7.50
2015,02,25,17,03,7.50
2015,02,25,17,04,7.50
2015,02,25,17,05,7.50
2015,02,25,17,06,7.40
2015,02,25,17,07,7.40
2015,02,25,17,08,7.40
2015,02,25,17,09,7.40
2015,02,25,17,10,7.40
2015,02,25,17,11,7.40
2015,02,25,17,12,7.40
2015,02,25,17,13,7.40
2015,02,25,17,14,7.40
2015,02,25,17,15,7.40
2015,02,25,17,16,7.40
2015,02,25,17,17,7.40
2015,02,25,17,18,7.40
2015,02,25,17,19,7.30
2015,02,25,17,20,7.30
2015,02,25,17,21,7.30
2015,02,25,17,22,7.30
2015,02,25,17,23,7.30
2015,02,25,17,24,7.30
2015,02,25,17,25,7.30
2015,02,25,17,26,7.30
2015,02,25,17,27,7.30
2015,02,25,17,28,7.30
2015,02,25,17,29,7.30
2015,02,25,17,30,7.30
2015,02,25,17,31,7.30
2015,02,25,17,32,7.30
2015,02,25,17,33,7.20
2015,02,25,17,34,7.20
2015,02,25,17,35,7.20
2015,02,25,17,36,7.20
2015,02,25,17,37,7.20
2015,02,25,17,38,7.20
2015,02,25,17,39,7.20
2015,02,25,17,40,7.20
2015,02,25,17,41,7.20
2015,02,25,17,42,7.20
2015,02,25,17,43,7.20
2015,02,25,17,44,7.20
2015,02,25,17,45,7.20
2015,02,25,17,46,7.20
2015,02,25,17,47,7.20
2015,02,25,17,48,7.20
2015,02,25,17,49,7.20
2015,02,25,17,50,7.20
2015,02,25,17,51,7.20
2015,02,25,17,52,7.20
2015,02,25,17,53,7.20
2015,02,25,17,54,7.20
2015,02,25,17,55,7.20
2015,02,25,17,56,7.20
2015,02,25,17,57,7.20
2015,02,25,17,58,7.20
2015,02,25,17,59,7.20
2015,02,25,18,00,7.10
2015,02,25,18,01,7.10
2015,02,25,18,02,7.10
2015,02,25,18,03,7.10
2015,02,25,18,04,7.10
2015,02,25,18,05,7.10
2015,02,25,18,06,7.10
2015,02,25,18,07,7.10
2015,02,25,18,08,7.10